TimeEDT,TemperatureF,Dew PointF,Humidity,Sea Level PressureIn,VisibilityMPH,Wind Direction,Wind SpeedMPH,Gust SpeedMPH,PrecipitationIn,Events,Conditions,WindDirDegrees,DateUTC
12:54 AM,55.0,51.1,86,29.94,10.0,NE,4.6,-,N/A,,Scattered Clouds,50,2013-05-09 04:54:00
1:54 AM,53.1,50.0,89,29.94,10.0,NE,3.5,-,N/A,,Partly Cloudy,40,2013-05-09 05:54:00
2:54 AM,52.0,50.0,93,29.92,10.0,Calm,Calm,-,N/A,,Mostly Cloudy,0,2013-05-09 06:54:00
3:54 AM,52.0,50.0,93,29.91,10.0,Variable,3.5,-,N/A,,Scattered Clouds,0,2013-05-09 07:54:00
4:54 AM,52.0,48.9,89,29.92,10.0,Calm,Calm,-,N/A,,Overcast,0,2013-05-09 08:54:00
5:54 AM,51.1,50.0,96,29.91,7.0,East,6.9,-,N/A,,Overcast,100,2013-05-09 09:54:00
6:54 AM,52.0,50.0,93,29.93,9.0,Calm,Calm,-,N/A,,Overcast,0,2013-05-09 10:54:00
7:54 AM,54.0,51.1,90,29.94,10.0,Calm,Calm,-,N/A,,Overcast,0,2013-05-09 11:54:00
8:23 AM,55.4,51.8,88,29.94,10.0,Calm,Calm,-,N/A,,Mostly Cloudy,0,2013-05-09 12:23:00
8:54 AM,55.9,52.0,87,29.94,10.0,Calm,Calm,-,N/A,,Mostly Cloudy,0,2013-05-09 12:54:00
9:26 AM,55.4,51.8,88,29.95,10.0,Calm,Calm,-,N/A,,Overcast,0,2013-05-09 13:26:00
9:39 AM,57.2,51.8,82,29.95,10.0,Calm,Calm,-,N/A,,Overcast,0,2013-05-09 13:39:00
9:54 AM,57.9,52.0,81,29.95,10.0,Calm,Calm,-,N/A,,Overcast,0,2013-05-09 13:54:00
10:26 AM,59.0,51.8,77,29.95,10.0,Calm,Calm,-,N/A,,Overcast,0,2013-05-09 14:26:00
10:54 AM,61.0,52.0,72,29.95,10.0,Calm,Calm,-,N/A,,Overcast,0,2013-05-09 14:54:00
11:41 AM,62.6,53.6,72,29.94,10.0,Calm,Calm,-,N/A,,Mostly Cloudy,0,2013-05-09 15:41:00
11:54 AM,63.0,52.0,67,29.94,10.0,Calm,Calm,-,N/A,,Mostly Cloudy,0,2013-05-09 15:54:00
12:26 PM,64.4,51.8,64,29.93,10.0,Variable,3.5,-,N/A,,Mostly Cloudy,0,2013-05-09 16:26:00
12:54 PM,66.2,53.6,64,29.92,10.0,Variable,4.6,-,N/A,,Mostly Cloudy,0,2013-05-09 16:54:00
1:01 PM,66.2,53.6,64,29.92,10.0,Calm,Calm,-,N/A,,Partly Cloudy,0,2013-05-09 17:01:00
1:54 PM,64.9,52.0,63,29.92,10.0,ESE,3.5,-,N/A,,Overcast,120,2013-05-09 17:54:00
2:54 PM,66.0,54.0,65,29.91,10.0,South,4.6,-,N/A,,Overcast,180,2013-05-09 18:54:00
3:54 PM,64.9,54.0,68,29.91,5.0,Calm,Calm,-,0.01,Rain,Light Rain,0,2013-05-09 19:54:00
4:54 PM,64.9,57.9,78,29.91,10.0,Calm,Calm,-,0.08,,Mostly Cloudy,0,2013-05-09 20:54:00
5:34 PM,66.2,57.2,73,29.91,10.0,Variable,4.6,-,N/A,,Mostly Cloudy,0,2013-05-09 21:34:00
5:44 PM,64.4,57.2,77,29.91,10.0,West,6.9,-,N/A,,Overcast,270,2013-05-09 21:44:00
5:54 PM,64.9,57.0,75,29.91,10.0,West,4.6,-,N/A,,Overcast,270,2013-05-09 21:54:00
6:54 PM,64.9,57.0,75,29.91,10.0,WSW,6.9,-,N/A,,Partly Cloudy,250,2013-05-09 22:54:00
7:54 PM,64.0,57.0,78,29.93,10.0,West,5.8,-,N/A,,Scattered Clouds,270,2013-05-09 23:54:00
8:54 PM,62.1,57.9,86,29.95,10.0,West,6.9,-,N/A,,Scattered Clouds,280,2013-05-10 00:54:00
9:54 PM,61.0,57.9,90,29.97,10.0,West,4.6,-,N/A,,Mostly Cloudy,270,2013-05-10 01:54:00
10:54 PM,61.0,57.9,90,29.98,10.0,West,4.6,-,N/A,,Overcast,270,2013-05-10 02:54:00
11:54 PM,59.0,57.0,93,29.97,10.0,NW,3.5,-,N/A,,Clear,320,2013-05-10 03:54:00